PIMOHWEATHER Station Historical Data
Daily Summary for June 10, 2020 Units:  Metric    English   Both
Daily Weekly Monthly Yearly
  High: Low: Average:
Temperature: 34.0 °C 27.0 °C 29.6 °C
Dew Point: 27.0 °C 25.0 °C 25.8 °C
Humidity: 91% 67% 81%
Wind Speed: 38km/h 0km/h 2.9km/h
Wind Gust: 48km/h - -
Wind- - ESE
Pressure: 1009.1 hPa 1005.0 hPa -
Precipitation: 1.80 mm    
 
 
Tabular Data for June 10, 2020
Time Temperature Dew Point Pressure Wind Wind Speed Wind Gust Humidity Rainfall Rate (Hourly) solar
00:04 28.0 °C 26.0 °C 1008.8 hPa Calm     86% 0.00 mm 0.00 W/m2
00:09 28.0 °C 26.0 °C 1008.9 hPa Calm     86% 0.00 mm 0.00 W/m2
00:14 28.0 °C 26.0 °C 1008.9 hPa Calm     86% 0.00 mm 0.00 W/m2
00:19 28.0 °C 26.0 °C 1008.9 hPa Calm     86% 0.00 mm 0.00 W/m2
00:24 28.0 °C 26.0 °C 1009.1 hPa Calm     86% 0.00 mm 0.00 W/m2
00:29 28.0 °C 25.0 °C 1008.8 hPa Calm     85% 0.00 mm 0.00 W/m2
00:34 28.0 °C 25.0 °C 1009.1 hPa Calm     84% 0.00 mm 0.00 W/m2
00:44 28.0 °C 25.0 °C 1008.8 hPa Calm     85% 0.00 mm 0.00 W/m2
00:49 28.0 °C 25.0 °C 1008.8 hPa Calm     85% 0.00 mm 0.00 W/m2
00:54 28.0 °C 25.0 °C 1008.5 hPa Calm     86% 0.00 mm 0.00 W/m2
00:59 28.0 °C 26.0 °C 1008.5 hPa Calm     86% 0.00 mm 0.00 W/m2
01:04 28.0 °C 26.0 °C 1008.5 hPa Calm     86% 0.00 mm 0.00 W/m2
01:09 28.0 °C 25.0 °C 1008.5 hPa Calm     85% 0.00 mm 0.00 W/m2
01:14 28.0 °C 25.0 °C 1008.1 hPa Calm     85% 0.00 mm 0.00 W/m2
01:19 28.0 °C 25.0 °C 1008.1 hPa Calm     85% 0.00 mm 0.00 W/m2
01:24 28.0 °C 25.0 °C 1007.8 hPa Calm     85% 0.00 mm 0.00 W/m2
01:29 28.0 °C 25.0 °C 1007.8 hPa Calm     85% 0.00 mm 0.00 W/m2
01:34 28.0 °C 25.0 °C 1007.8 hPa Calm     85% 0.00 mm 0.00 W/m2
01:39 28.0 °C 25.0 °C 1007.8 hPa Calm     85% 0.00 mm 0.00 W/m2
01:44 28.0 °C 25.0 °C 1007.8 hPa Calm     86% 0.00 mm 0.00 W/m2
01:49 28.0 °C 25.0 °C 1007.5 hPa Calm     86% 0.00 mm 0.00 W/m2
01:54 28.0 °C 25.0 °C 1007.5 hPa Calm     86% 0.00 mm 0.00 W/m2
01:59 28.0 °C 25.0 °C 1007.5 hPa Calm     86% 0.00 mm 0.00 W/m2
02:04 28.0 °C 25.0 °C 1007.5 hPa Calm     86% 0.00 mm 0.00 W/m2
02:09 28.0 °C 25.0 °C 1007.4 hPa Calm     86% 0.00 mm 0.00 W/m2
02:14 28.0 °C 25.0 °C 1007.6 hPa Calm     86% 0.00 mm 0.00 W/m2
02:19 28.0 °C 25.0 °C 1007.6 hPa Calm     87% 0.00 mm 0.00 W/m2
02:24 28.0 °C 25.0 °C 1007.4 hPa Calm     87% 0.00 mm 0.00 W/m2
02:29 28.0 °C 25.0 °C 1007.5 hPa Calm     87% 0.00 mm 0.00 W/m2
02:34 28.0 °C 25.0 °C 1007.5 hPa Calm     87% 0.00 mm 0.00 W/m2
02:39 28.0 °C 25.0 °C 1007.5 hPa Calm     87% 0.00 mm 0.00 W/m2
02:44 28.0 °C 25.0 °C 1007.5 hPa Calm     86% 0.00 mm 0.00 W/m2
02:49 28.0 °C 25.0 °C 1007.4 hPa Calm     86% 0.00 mm 0.00 W/m2
02:54 28.0 °C 25.0 °C 1007.6 hPa Calm     87% 0.00 mm 0.00 W/m2
02:59 28.0 °C 25.0 °C 1007.4 hPa Calm     87% 0.00 mm 0.00 W/m2
03:04 28.0 °C 25.0 °C 1007.5 hPa Calm     87% 0.00 mm 0.00 W/m2
03:09 28.0 °C 25.0 °C 1007.5 hPa Calm     87% 0.00 mm 0.00 W/m2
03:14 28.0 °C 25.0 °C 1007.3 hPa Calm     88% 0.00 mm 0.00 W/m2
03:19 27.0 °C 25.0 °C 1007.4 hPa Calm     87% 0.00 mm 0.00 W/m2
03:24 27.0 °C 25.0 °C 1007.4 hPa Calm     87% 0.00 mm 0.00 W/m2
03:29 27.0 °C 25.0 °C 1007.1 hPa Calm     87% 0.00 mm 0.00 W/m2
03:34 27.0 °C 25.0 °C 1007.2 hPa Calm     87% 0.00 mm 0.00 W/m2
03:39 27.0 °C 25.0 °C 1007.1 hPa Calm     87% 0.00 mm 0.00 W/m2
03:44 27.0 °C 25.0 °C 1007.3 hPa Calm     88% 0.00 mm 0.00 W/m2
03:49 27.0 °C 25.0 °C 1007.2 hPa Calm     87% 0.00 mm 0.00 W/m2
03:54 27.0 °C 25.0 °C 1007.2 hPa Calm     87% 0.00 mm 0.00 W/m2
03:59 27.0 °C 25.0 °C 1007.2 hPa Calm     88% 0.00 mm 0.00 W/m2
04:04 27.0 °C 25.0 °C 1007.2 hPa Calm     88% 0.00 mm 0.00 W/m2
04:09 27.0 °C 25.0 °C 1007.1 hPa Calm     88% 0.00 mm 0.00 W/m2
04:14 27.0 °C 25.0 °C 1007.0 hPa Calm     88% 0.00 mm 0.00 W/m2
04:19 27.0 °C 25.0 °C 1007.1 hPa Calm     88% 0.00 mm 0.00 W/m2
04:24 27.0 °C 25.0 °C 1007.2 hPa Calm     88% 0.00 mm 0.00 W/m2
04:29 27.0 °C 25.0 °C 1007.0 hPa Calm     89% 0.00 mm 0.00 W/m2
04:34 27.0 °C 25.0 °C 1007.0 hPa Calm     89% 0.00 mm 0.00 W/m2
04:39 27.0 °C 25.0 °C 1007.1 hPa Calm     89% 0.00 mm 0.00 W/m2
04:44 27.0 °C 25.0 °C 1007.2 hPa Calm     89% 0.00 mm 0.00 W/m2
04:49 27.0 °C 25.0 °C 1007.2 hPa Calm     88% 0.00 mm 0.00 W/m2
04:54 27.0 °C 25.0 °C 1006.9 hPa Calm     89% 0.00 mm 0.00 W/m2
04:59 27.0 °C 25.0 °C 1007.0 hPa Calm     89% 0.00 mm 0.00 W/m2
05:04 27.0 °C 25.0 °C 1007.1 hPa Calm     89% 0.00 mm 0.00 W/m2
05:09 27.0 °C 25.0 °C 1007.0 hPa Calm     89% 0.00 mm 0.00 W/m2
05:14 27.0 °C 25.0 °C 1007.2 hPa Calm     89% 0.00 mm 0.00 W/m2
05:19 27.0 °C 25.0 °C 1007.2 hPa North 1 km/h 4 km/h 89% 0.00 mm 0.00 W/m2
05:24 27.0 °C 25.0 °C 1007.2 hPa Calm     89% 0.00 mm 1.09 W/m2
05:29 27.0 °C 25.0 °C 1007.4 hPa NNE 4 km/h 8 km/h 89% 0.00 mm 3.54 W/m2
05:34 27.0 °C 25.0 °C 1007.3 hPa North 8 km/h 12 km/h 88% 0.00 mm 8.11 W/m2
05:39 27.0 °C 25.0 °C 1007.3 hPa NNE 6 km/h 8 km/h 88% 0.00 mm 17.19 W/m2
05:44 27.0 °C 25.0 °C 1007.3 hPa Calm     87% 0.00 mm 33.63 W/m2
05:49 27.0 °C 25.0 °C 1007.4 hPa NNE 3 km/h 4 km/h 87% 0.00 mm 39.70 W/m2
05:54 27.0 °C 25.0 °C 1007.4 hPa Calm     87% 0.00 mm 57.46 W/m2
05:59 27.0 °C 25.0 °C 1007.5 hPa Calm     87% 0.00 mm 60.23 W/m2
06:04 27.0 °C 25.0 °C 1007.6 hPa Calm   4 km/h 87% 0.00 mm 50.54 W/m2
06:09 27.0 °C 25.0 °C 1007.6 hPa Calm     87% 0.00 mm 56.49 W/m2
06:14 27.0 °C 25.0 °C 1007.6 hPa North 5 km/h 8 km/h 87% 0.00 mm 64.32 W/m2
06:19 27.0 °C 25.0 °C 1007.6 hPa Calm     87% 0.00 mm 106.67 W/m2
06:24 28.0 °C 25.0 °C 1007.6 hPa Calm     87% 0.00 mm 124.66 W/m2
06:29 28.0 °C 25.0 °C 1007.6 hPa Calm     87% 0.00 mm 143.37 W/m2
06:34 28.0 °C 25.0 °C 1007.7 hPa Calm     86% 0.00 mm 153.36 W/m2
06:39 28.0 °C 26.0 °C 1007.9 hPa NNE 1 km/h 4 km/h 86% 0.00 mm 163.85 W/m2
06:44 28.0 °C 26.0 °C 1007.9 hPa Calm     85% 0.00 mm 180.17 W/m2
06:49 29.0 °C 26.0 °C 1007.7 hPa NNW 7 km/h 8 km/h 84% 0.00 mm 193.87 W/m2
06:54 29.0 °C 26.0 °C 1008.0 hPa NNW 4 km/h 4 km/h 84% 0.00 mm 202.22 W/m2
06:59 29.0 °C 26.0 °C 1007.8 hPa North 10 km/h 16 km/h 83% 0.00 mm 216.21 W/m2
07:04 29.0 °C 26.0 °C 1007.9 hPa NNE 15 km/h 16 km/h 83% 0.00 mm 225.95 W/m2
07:09 29.0 °C 26.0 °C 1007.8 hPa North 15 km/h 16 km/h 83% 0.00 mm 239.53 W/m2
07:14 29.0 °C 26.0 °C 1007.7 hPa North 12 km/h 16 km/h 83% 0.00 mm 248.14 W/m2
07:19 29.0 °C 26.0 °C 1007.7 hPa NNE 10 km/h 12 km/h 82% 0.00 mm 259.13 W/m2
07:24 29.0 °C 26.0 °C 1007.8 hPa North 12 km/h 12 km/h 81% 0.00 mm 266.27 W/m2
07:29 29.0 °C 26.0 °C 1007.9 hPa North 15 km/h 20 km/h 81% 0.00 mm 268.45 W/m2
07:34 30.0 °C 26.0 °C 1007.9 hPa North 8 km/h 8 km/h 81% 0.00 mm 283.13 W/m2
07:39 30.0 °C 26.0 °C 1007.9 hPa North 1 km/h 4 km/h 79% 0.00 mm 291.35 W/m2
07:44 30.0 °C 26.0 °C 1007.8 hPa NNE 8 km/h 8 km/h 78% 0.00 mm 291.25 W/m2
07:49 30.0 °C 26.0 °C 1007.9 hPa NW 10 km/h 12 km/h 78% 0.00 mm 294.61 W/m2
07:54 31.0 °C 26.0 °C 1007.8 hPa NW 14 km/h 16 km/h 78% 0.00 mm 317.92 W/m2
07:59 30.0 °C 26.0 °C 1008.0 hPa NW 15 km/h 16 km/h 78% 0.00 mm 342.32 W/m2
08:04 30.0 °C 26.0 °C 1008.0 hPa NNW 13 km/h 16 km/h 77% 0.00 mm 285.58 W/m2
08:09 31.0 °C 26.0 °C 1007.8 hPa NNW 10 km/h 16 km/h 77% 0.00 mm 371.92 W/m2
08:14 31.0 °C 26.0 °C 1007.8 hPa North 14 km/h 16 km/h 76% 0.00 mm 344.10 W/m2
08:19 31.0 °C 26.0 °C 1008.0 hPa North 10 km/h 12 km/h 76% 0.00 mm 380.27 W/m2
08:24 31.0 °C 26.0 °C 1008.0 hPa North 10 km/h 16 km/h 75% 0.00 mm 396.22 W/m2
08:29 31.0 °C 26.0 °C 1008.1 hPa NNW 7 km/h 12 km/h 74% 0.00 mm 416.45 W/m2
08:34 31.0 °C 26.0 °C 1007.9 hPa NNW 1 km/h 4 km/h 73% 0.00 mm 417.85 W/m2
08:39 31.0 °C 26.0 °C 1007.9 hPa North 3 km/h 8 km/h 73% 0.00 mm 464.19 W/m2
08:44 32.0 °C 26.0 °C 1007.8 hPa North 2 km/h 4 km/h 72% 0.00 mm 438.03 W/m2
08:49 32.0 °C 26.0 °C 1007.8 hPa Calm     70% 0.00 mm 436.71 W/m2
08:54 32.0 °C 26.0 °C 1007.9 hPa Calm     71% 0.00 mm 363.70 W/m2
08:59 31.0 °C 25.0 °C 1008.1 hPa Calm     73% 0.00 mm 201.41 W/m2
09:04 31.0 °C 25.0 °C 1008.2 hPa Calm   4 km/h 73% 0.00 mm 449.87 W/m2
09:09 32.0 °C 26.0 °C 1007.9 hPa Calm   4 km/h 73% 0.00 mm 503.92 W/m2
09:14 32.0 °C 26.0 °C 1007.8 hPa North 5 km/h 12 km/h 71% 0.00 mm 472.02 W/m2
09:19 32.0 °C 26.0 °C 1008.0 hPa Calm     71% 0.00 mm 418.58 W/m2
09:24 32.0 °C 26.0 °C 1007.7 hPa Calm   4 km/h 71% 0.00 mm 414.57 W/m2
09:29 32.0 °C 26.0 °C 1007.9 hPa Calm   4 km/h 72% 0.00 mm 497.68 W/m2
09:34 33.0 °C 26.0 °C 1007.9 hPa Calm     71% 0.00 mm 554.64 W/m2
09:39 33.0 °C 26.0 °C 1007.9 hPa Calm     70% 0.00 mm 346.11 W/m2
09:44 32.0 °C 26.0 °C 1008.1 hPa Calm   4 km/h 72% 0.00 mm 178.51 W/m2
09:49 32.0 °C 26.0 °C 1008.0 hPa Calm     72% 0.00 mm 121.23 W/m2
09:54 32.0 °C 26.0 °C 1007.8 hPa Calm     72% 0.00 mm 115.87 W/m2
09:59 32.0 °C 26.0 °C 1007.8 hPa ENE 9 km/h 16 km/h 74% 0.00 mm 148.12 W/m2
10:04 31.0 °C 26.0 °C 1007.6 hPa ENE 12 km/h 16 km/h 76% 0.00 mm 213.10 W/m2
10:09 31.0 °C 27.0 °C 1007.7 hPa NNE 6 km/h 12 km/h 80% 0.00 mm 265.10 W/m2
10:14 30.0 °C 27.0 °C 1007.5 hPa NNE 14 km/h 20 km/h 81% 0.00 mm 305.71 W/m2
10:19 31.0 °C 27.0 °C 1007.7 hPa Calm   4 km/h 80% 0.00 mm 317.60 W/m2
10:24 32.0 °C 27.0 °C 1007.7 hPa SE 1 km/h 4 km/h 78% 0.00 mm 633.62 W/m2
10:29 32.0 °C 27.0 °C 1007.5 hPa NE 15 km/h 16 km/h 76% 0.00 mm 701.13 W/m2
10:34 33.0 °C 27.0 °C 1007.5 hPa NNE 6 km/h 8 km/h 73% 0.00 mm 549.09 W/m2
10:39 32.0 °C 26.0 °C 1007.5 hPa NNE 1 km/h 4 km/h 72% 0.00 mm 530.49 W/m2
10:44 32.0 °C 26.0 °C 1007.5 hPa Calm   4 km/h 74% 0.00 mm 593.45 W/m2
10:49 32.0 °C 26.0 °C 1007.4 hPa NNE 26 km/h 32 km/h 75% 0.00 mm 212.32 W/m2
10:54 31.0 °C 26.0 °C 1007.6 hPa NNE 38 km/h 48 km/h 87% 1.80 mm 228.86 W/m2
10:59 29.0 °C 26.0 °C 1007.5 hPa NNE 11 km/h 16 km/h 90% 5.41 mm 402.97 W/m2
11:04 29.0 °C 27.0 °C 1007.4 hPa North 6 km/h 8 km/h 91% 5.41 mm 628.17 W/m2
11:09 29.0 °C 26.0 °C 1007.4 hPa North 10 km/h 12 km/h 89% 3.61 mm 603.26 W/m2
11:14 30.0 °C 26.0 °C 1007.4 hPa North 14 km/h 20 km/h 84% 0.00 mm 349.14 W/m2
11:19 31.0 °C 26.0 °C 1007.3 hPa NNE 7 km/h 8 km/h 79% 0.00 mm 640.35 W/m2
11:24 31.0 °C 26.0 °C 1007.3 hPa NNE 17 km/h 20 km/h 77% 0.00 mm 494.77 W/m2
11:29 31.0 °C 26.0 °C 1007.5 hPa North 13 km/h 16 km/h 77% 0.00 mm 568.98 W/m2
11:34 32.0 °C 27.0 °C 1007.5 hPa NNE 10 km/h 16 km/h 76% 0.00 mm 486.31 W/m2
11:39 32.0 °C 27.0 °C 1007.5 hPa North 6 km/h 8 km/h 74% 0.00 mm 383.20 W/m2
11:44 32.0 °C 27.0 °C 1007.4 hPa NNE 11 km/h 16 km/h 73% 0.00 mm 338.89 W/m2
11:49 32.0 °C 27.0 °C 1007.2 hPa NNE 21 km/h 24 km/h 74% 0.00 mm 533.41 W/m2
11:54 33.0 °C 27.0 °C 1007.2 hPa Calm   4 km/h 69% 0.00 mm 514.39 W/m2
11:59 33.0 °C 26.0 °C 1007.4 hPa Calm   4 km/h 69% 0.00 mm 356.31 W/m2
12:04 32.0 °C 26.0 °C 1007.3 hPa Calm   4 km/h 70% 0.00 mm 346.43 W/m2
12:09 32.0 °C 26.0 °C 1007.3 hPa Calm   4 km/h 70% 0.00 mm 337.03 W/m2
12:14 33.0 °C 26.0 °C 1007.3 hPa Calm   4 km/h 70% 0.00 mm 337.10 W/m2
12:19 33.0 °C 26.0 °C 1007.1 hPa NNE 1 km/h 4 km/h 70% 0.00 mm 450.61 W/m2
12:24 33.0 °C 26.0 °C 1006.9 hPa North 1 km/h 4 km/h 70% 0.00 mm 494.60 W/m2
12:29 33.0 °C 26.0 °C 1006.9 hPa North 25 km/h 28 km/h 69% 0.00 mm 492.67 W/m2
12:34 33.0 °C 26.0 °C 1007.0 hPa NNE 10 km/h 16 km/h 68% 0.00 mm 581.43 W/m2
12:39 34.0 °C 26.0 °C 1007.0 hPa North 15 km/h 16 km/h 67% 0.00 mm 568.71 W/m2
12:44 33.0 °C 27.0 °C 1007.0 hPa NE 15 km/h 16 km/h 69% 0.00 mm 360.47 W/m2
12:49 33.0 °C 27.0 °C 1007.1 hPa SE 8 km/h 12 km/h 73% 0.00 mm 217.07 W/m2
12:54 32.0 °C 27.0 °C 1006.9 hPa East 5 km/h 8 km/h 81% 0.00 mm 254.11 W/m2
12:59 30.0 °C 27.0 °C 1006.9 hPa SE 14 km/h 16 km/h 84% 0.00 mm 388.07 W/m2
13:04 31.0 °C 27.0 °C 1007.0 hPa ESE 8 km/h 12 km/h 84% 0.00 mm 435.05 W/m2
13:09 31.0 °C 27.0 °C 1007.2 hPa SE 4 km/h 12 km/h 83% 0.00 mm 218.51 W/m2
13:14 30.0 °C 27.0 °C 1007.2 hPa ESE 9 km/h 12 km/h 84% 0.00 mm 168.23 W/m2
13:19 30.0 °C 27.0 °C 1007.1 hPa ESE 9 km/h 12 km/h 86% 0.00 mm 218.29 W/m2
13:24 30.0 °C 27.0 °C 1007.1 hPa East 5 km/h 8 km/h 86% 0.00 mm 372.58 W/m2
13:29 30.0 °C 27.0 °C 1007.2 hPa East 5 km/h 8 km/h 85% 0.00 mm 297.10 W/m2
13:34 30.0 °C 27.0 °C 1007.2 hPa SSE 8 km/h 12 km/h 85% 0.00 mm 177.02 W/m2
13:39 29.0 °C 26.0 °C 1006.8 hPa East 11 km/h 20 km/h 85% 0.00 mm 153.06 W/m2
13:44 29.0 °C 26.0 °C 1006.7 hPa ESE 10 km/h 16 km/h 86% 0.00 mm 138.36 W/m2
13:49 29.0 °C 26.0 °C 1006.7 hPa East 9 km/h 12 km/h 86% 0.00 mm 144.45 W/m2
13:54 29.0 °C 26.0 °C 1006.5 hPa SE 9 km/h 12 km/h 87% 0.00 mm 156.54 W/m2
13:59 29.0 °C 26.0 °C 1006.5 hPa SE 9 km/h 12 km/h 86% 0.00 mm 178.21 W/m2
14:04 29.0 °C 26.0 °C 1006.5 hPa East 5 km/h 8 km/h 87% 0.00 mm 212.44 W/m2
14:09 29.0 °C 26.0 °C 1006.6 hPa ESE 10 km/h 12 km/h 87% 0.00 mm 234.64 W/m2
14:14 30.0 °C 27.0 °C 1006.7 hPa Calm   4 km/h 86% 0.00 mm 201.31 W/m2
14:19 30.0 °C 27.0 °C 1006.6 hPa ENE 3 km/h 8 km/h 84% 0.00 mm 170.83 W/m2
14:24 30.0 °C 27.0 °C 1006.5 hPa East 5 km/h 8 km/h 85% 0.00 mm 257.12 W/m2
14:29 29.0 °C 27.0 °C 1006.4 hPa ESE 8 km/h 12 km/h 86% 0.00 mm 329.69 W/m2
14:34 30.0 °C 27.0 °C 1006.2 hPa ESE 3 km/h 8 km/h 85% 0.00 mm 193.34 W/m2
14:39 30.0 °C 27.0 °C 1006.1 hPa Calm     84% 0.00 mm 183.30 W/m2
14:44 30.0 °C 27.0 °C 1006.0 hPa East 4 km/h 8 km/h 83% 0.00 mm 182.37 W/m2
14:49 30.0 °C 27.0 °C 1005.9 hPa Calm   4 km/h 82% 0.00 mm 186.88 W/m2
14:54 30.0 °C 26.0 °C 1005.8 hPa Calm   4 km/h 80% 0.00 mm 186.95 W/m2
14:59 31.0 °C 26.0 °C 1005.7 hPa NE 1 km/h 4 km/h 80% 0.00 mm 186.14 W/m2
15:04 31.0 °C 27.0 °C 1005.8 hPa ENE 3 km/h 4 km/h 79% 0.00 mm 181.47 W/m2
15:09 31.0 °C 26.0 °C 1005.8 hPa NE 3 km/h 8 km/h 78% 0.00 mm 198.18 W/m2
15:14 31.0 °C 27.0 °C 1005.9 hPa NNE 5 km/h 12 km/h 78% 0.00 mm 208.65 W/m2
15:19 31.0 °C 27.0 °C 1005.9 hPa WSW 3 km/h 4 km/h 77% 0.00 mm 173.42 W/m2
15:24 31.0 °C 26.0 °C 1006.0 hPa Calm     77% 0.00 mm 139.75 W/m2
15:29 31.0 °C 26.0 °C 1005.8 hPa Calm     76% 0.00 mm 124.61 W/m2
15:34 31.0 °C 26.0 °C 1005.8 hPa Calm     76% 0.00 mm 113.03 W/m2
15:39 31.0 °C 26.0 °C 1005.8 hPa Calm   4 km/h 77% 0.00 mm 105.52 W/m2
15:44 31.0 °C 26.0 °C 1005.6 hPa Calm   4 km/h 77% 0.00 mm 103.30 W/m2
15:49 31.0 °C 26.0 °C 1005.7 hPa Calm     77% 0.00 mm 106.50 W/m2
15:54 31.0 °C 26.0 °C 1005.6 hPa SE 5 km/h 12 km/h 78% 0.00 mm 112.40 W/m2
15:59 30.0 °C 26.0 °C 1005.5 hPa ESE 5 km/h 12 km/h 78% 0.00 mm 116.46 W/m2
16:04 30.0 °C 26.0 °C 1005.5 hPa ESE 4 km/h 8 km/h 78% 0.00 mm 121.01 W/m2
16:09 30.0 °C 26.0 °C 1005.5 hPa ESE 5 km/h 8 km/h 77% 0.00 mm 127.57 W/m2
16:14 31.0 °C 26.0 °C 1005.4 hPa East 4 km/h 8 km/h 76% 0.00 mm 130.82 W/m2
16:19 31.0 °C 26.0 °C 1005.3 hPa ESE 4 km/h 4 km/h 77% 0.00 mm 131.04 W/m2
16:24 31.0 °C 26.0 °C 1005.1 hPa NE 7 km/h 8 km/h 76% 0.00 mm 130.11 W/m2
16:29 31.0 °C 26.0 °C 1005.1 hPa SE 4 km/h 8 km/h 76% 0.00 mm 128.60 W/m2
16:34 31.0 °C 26.0 °C 1005.0 hPa ENE 2 km/h 4 km/h 76% 0.00 mm 125.56 W/m2
16:39 31.0 °C 26.0 °C 1005.1 hPa Calm     77% 0.00 mm 122.21 W/m2
16:44 31.0 °C 26.0 °C 1005.1 hPa Calm     77% 0.00 mm 118.69 W/m2
16:49 31.0 °C 26.0 °C 1005.2 hPa Calm     76% 0.00 mm 113.87 W/m2
16:54 31.0 °C 26.0 °C 1005.3 hPa Calm     76% 0.00 mm 105.60 W/m2
16:59 31.0 °C 26.0 °C 1005.4 hPa Calm     76% 0.00 mm 100.80 W/m2
17:04 31.0 °C 26.0 °C 1005.4 hPa Calm     76% 0.00 mm 92.97 W/m2
17:09 31.0 °C 26.0 °C 1005.6 hPa Calm     76% 0.00 mm 87.17 W/m2
17:14 31.0 °C 26.0 °C 1005.5 hPa SSE 1 km/h 4 km/h 77% 0.00 mm 82.03 W/m2
17:19 31.0 °C 26.0 °C 1005.5 hPa SE 4 km/h 4 km/h 79% 0.00 mm 73.58 W/m2
17:24 31.0 °C 26.0 °C 1005.5 hPa Calm     78% 0.00 mm 64.55 W/m2
17:29 31.0 °C 26.0 °C 1005.6 hPa Calm     77% 0.00 mm 59.59 W/m2
17:34 31.0 °C 26.0 °C 1005.5 hPa Calm     77% 0.00 mm 55.06 W/m2
17:39 31.0 °C 26.0 °C 1005.6 hPa Calm     77% 0.00 mm 50.74 W/m2
17:44 31.0 °C 26.0 °C 1005.6 hPa NNE 5 km/h 8 km/h 77% 0.00 mm 45.34 W/m2
17:49 30.0 °C 26.0 °C 1005.6 hPa Calm     77% 0.00 mm 36.84 W/m2
17:54 30.0 °C 26.0 °C 1005.5 hPa Calm     77% 0.00 mm 29.16 W/m2
17:59 30.0 °C 26.0 °C 1005.3 hPa NNE 5 km/h 8 km/h 77% 0.00 mm 22.18 W/m2
18:04 30.0 °C 26.0 °C 1005.5 hPa North 5 km/h 8 km/h 78% 0.00 mm 16.46 W/m2
18:09 30.0 °C 26.0 °C 1005.4 hPa NNE 1 km/h 4 km/h 78% 0.00 mm 9.89 W/m2
18:14 30.0 °C 26.0 °C 1005.4 hPa NNE 6 km/h 8 km/h 78% 0.00 mm 5.42 W/m2
18:19 30.0 °C 26.0 °C 1005.2 hPa North 6 km/h 8 km/h 78% 0.00 mm 2.04 W/m2
18:24 30.0 °C 26.0 °C 1005.2 hPa Calm     79% 0.00 mm 0.00 W/m2
18:29 30.0 °C 26.0 °C 1005.3 hPa Calm     80% 0.00 mm 0.00 W/m2
18:34 30.0 °C 26.0 °C 1005.4 hPa Calm     80% 0.00 mm 0.00 W/m2
18:39 30.0 °C 26.0 °C 1005.4 hPa SE 5 km/h 8 km/h 80% 0.00 mm 0.00 W/m2
18:44 30.0 °C 26.0 °C 1005.8 hPa Calm   4 km/h 80% 0.00 mm 0.00 W/m2
18:49 30.0 °C 26.0 °C 1005.8 hPa Calm     81% 0.00 mm 0.00 W/m2
18:54 30.0 °C 26.0 °C 1005.9 hPa Calm     81% 0.00 mm 0.00 W/m2
18:59 30.0 °C 26.0 °C 1006.0 hPa Calm     81% 0.00 mm 0.00 W/m2
19:04 30.0 °C 26.0 °C 1006.1 hPa Calm   4 km/h 81% 0.00 mm 0.00 W/m2
19:09 30.0 °C 26.0 °C 1006.2 hPa Calm     81% 0.00 mm 0.00 W/m2
19:14 30.0 °C 26.0 °C 1006.3 hPa Calm     80% 0.00 mm 0.00 W/m2
19:19 30.0 °C 26.0 °C 1006.3 hPa Calm   4 km/h 80% 0.00 mm 0.00 W/m2
19:24 30.0 °C 26.0 °C 1006.1 hPa Calm     80% 0.00 mm 0.00 W/m2
19:29 30.0 °C 26.0 °C 1006.4 hPa Calm     80% 0.00 mm 0.00 W/m2
19:34 30.0 °C 26.0 °C 1006.3 hPa Calm     81% 0.00 mm 0.00 W/m2
19:39 30.0 °C 26.0 °C 1006.6 hPa Calm     81% 0.00 mm 0.00 W/m2
19:44 30.0 °C 26.0 °C 1006.4 hPa Calm     81% 0.00 mm 0.00 W/m2
19:49 30.0 °C 26.0 °C 1006.5 hPa Calm     81% 0.00 mm 0.00 W/m2
19:54 30.0 °C 26.0 °C 1006.4 hPa Calm     81% 0.00 mm 0.00 W/m2
19:59 30.0 °C 26.0 °C 1006.2 hPa Calm     80% 0.00 mm 0.00 W/m2
20:04 30.0 °C 26.0 °C 1006.0 hPa Calm     80% 0.00 mm 0.00 W/m2
20:09 30.0 °C 26.0 °C 1006.0 hPa Calm     80% 0.00 mm 0.00 W/m2
20:14 30.0 °C 26.0 °C 1006.0 hPa Calm     81% 0.00 mm 0.00 W/m2
20:19 30.0 °C 26.0 °C 1006.0 hPa NW 3 km/h 4 km/h 81% 0.00 mm 0.00 W/m2
20:24 30.0 °C 26.0 °C 1006.2 hPa Calm     79% 0.00 mm 0.00 W/m2
20:29 30.0 °C 26.0 °C 1006.4 hPa Calm     79% 0.00 mm 0.00 W/m2
20:34 30.0 °C 26.0 °C 1006.4 hPa Calm     79% 0.00 mm 0.00 W/m2
20:39 30.0 °C 26.0 °C 1006.2 hPa Calm     79% 0.00 mm 0.00 W/m2
20:44 30.0 °C 26.0 °C 1006.3 hPa Calm     79% 0.00 mm 0.00 W/m2
20:49 30.0 °C 26.0 °C 1006.3 hPa Calm     79% 0.00 mm 0.00 W/m2
20:54 30.0 °C 25.0 °C 1006.5 hPa Calm     78% 0.00 mm 0.00 W/m2
20:59 30.0 °C 25.0 °C 1006.5 hPa Calm     78% 0.00 mm 0.00 W/m2
21:04 30.0 °C 25.0 °C 1006.5 hPa Calm     78% 0.00 mm 0.00 W/m2
21:09 30.0 °C 25.0 °C 1006.5 hPa Calm     78% 0.00 mm 0.00 W/m2
21:14 30.0 °C 26.0 °C 1006.5 hPa Calm     79% 0.00 mm 0.00 W/m2
21:19 30.0 °C 26.0 °C 1006.3 hPa Calm     79% 0.00 mm 0.00 W/m2
21:24 29.0 °C 25.0 °C 1006.3 hPa Calm     79% 0.00 mm 0.00 W/m2
21:29 29.0 °C 26.0 °C 1006.3 hPa Calm     80% 0.00 mm 0.00 W/m2
21:34 29.0 °C 26.0 °C 1006.3 hPa Calm     80% 0.00 mm 0.00 W/m2
21:39 29.0 °C 26.0 °C 1006.6 hPa Calm     80% 0.00 mm 0.00 W/m2
21:44 29.0 °C 26.0 °C 1006.6 hPa Calm     82% 0.00 mm 0.00 W/m2
21:49 30.0 °C 26.0 °C 1006.6 hPa Calm     82% 0.00 mm 0.00 W/m2
21:54 29.0 °C 26.0 °C 1006.5 hPa Calm     82% 0.00 mm 0.00 W/m2
21:59 29.0 °C 26.0 °C 1006.6 hPa Calm     81% 0.00 mm 0.00 W/m2
22:04 29.0 °C 26.0 °C 1006.7 hPa Calm     81% 0.00 mm 0.00 W/m2
22:09 29.0 °C 26.0 °C 1006.7 hPa Calm     81% 0.00 mm 0.00 W/m2
22:14 29.0 °C 26.0 °C 1006.7 hPa Calm     80% 0.00 mm 0.00 W/m2
22:19 29.0 °C 26.0 °C 1006.9 hPa Calm     82% 0.00 mm 0.00 W/m2
22:24 29.0 °C 26.0 °C 1007.1 hPa Calm     84% 0.00 mm 0.00 W/m2
22:29 29.0 °C 26.0 °C 1007.1 hPa Calm     85% 0.00 mm 0.00 W/m2
22:34 29.0 °C 26.0 °C 1007.0 hPa Calm     85% 0.00 mm 0.00 W/m2
22:39 29.0 °C 25.0 °C 1006.9 hPa Calm     80% 0.00 mm 0.00 W/m2
22:44 29.0 °C 26.0 °C 1006.9 hPa Calm     80% 0.00 mm 0.00 W/m2
22:49 29.0 °C 26.0 °C 1006.9 hPa Calm     80% 0.00 mm 0.00 W/m2
22:54 29.0 °C 25.0 °C 1007.2 hPa Calm     79% 0.00 mm 0.00 W/m2
22:59 29.0 °C 25.0 °C 1007.0 hPa Calm     79% 0.00 mm 0.00 W/m2
23:04 29.0 °C 25.0 °C 1007.1 hPa North 1 km/h 4 km/h 79% 0.00 mm 0.00 W/m2
23:09 29.0 °C 25.0 °C 1007.0 hPa Calm     79% 0.00 mm 0.00 W/m2
23:14 29.0 °C 25.0 °C 1006.7 hPa Calm     79% 0.00 mm 0.00 W/m2
23:19 29.0 °C 25.0 °C 1006.5 hPa Calm     79% 0.00 mm 0.00 W/m2
23:24 29.0 °C 25.0 °C 1006.4 hPa Calm     79% 0.00 mm 0.00 W/m2
23:29 29.0 °C 25.0 °C 1006.5 hPa Calm     80% 0.00 mm 0.00 W/m2
23:34 29.0 °C 26.0 °C 1006.5 hPa Calm     83% 0.00 mm 0.00 W/m2
23:39 29.0 °C 26.0 °C 1006.7 hPa Calm     84% 0.00 mm 0.00 W/m2
23:44 29.0 °C 26.0 °C 1006.5 hPa Calm     86% 1.80 mm 0.00 W/m2
23:49 28.0 °C 26.0 °C 1006.5 hPa Calm     87% 3.61 mm 0.00 W/m2
23:54 28.0 °C 26.0 °C 1006.5 hPa Calm     89% 3.61 mm 0.00 W/m2
23:59 28.0 °C 26.0 °C 1006.5 hPa Calm     89% 3.61 mm 0.00 W/m2
PIMOHWEATHER Philippines
Compliments of Weather Underground - 2 mb